Weather History for Jefferson, NC

Change the Weather History Date:

Monday, February 1, 2010

  Actual Average Record
Temperature  
Mean Temperature 32 °F -  
Max Temperature 42 °F 45 °F 72 °F (1989)
Min Temperature 21 °F 22 °F 0 °F (1971)
Degree Days  
Heating Degree Days 34    
Moisture  
Dew Point 10 °F    
Average Humidity 42    
Maximum Humidity 59    
Minimum Humidity 27    
Precipitation  
Precipitation 0.00 in - - ()
Sea Level Pressure  
Sea Level Pressure 30.19 in    
Wind  
Wind Speed 5 mph (South)    
Max Wind Speed 21 mph    
Max Gust Speed 26 mph    
Visibility 10 miles    
Events      
Averages and records for this station are not official NWS values.
T = Trace of Precipitation, MM = Missing Value Source: NWS Daily Summary

Daily Weather History Graph

Daily Weather History Graph

Search for Another Location

Airport:

Trip Planner

Search our weather history database for the weather conditions in past years. The results will help you decide how hot, cold, wet, or windy it might be!

Date:

Astronomy

Feb. 01, 2010 Rise Set
Actual Time 7:27 AM EST 5:51 PM EST
Civil Twilight 7:00 AM EST 6:18 PM EST
Nautical Twilight 6:29 AM EST 6:49 PM EST
Astronomical Twilight 5:58 AM EST 7:20 PM EST
Moon 9:09 PM EST (2/1) 8:43 AM EST (2/1)
Length of Visible Light 11h 18m
Length of Day
10h 24m
Waning Gibbous, 91% of the Moon is Illuminated
Feb 1
Waning Gibbous
Feb 5
Last Quarter
Feb 13
New
Feb 21
First Quarter
Feb 28
Full

Hourly Weather History & Observations

Time (EST) Temp. Windchill Dew Point Humidity Pressure Visibility Wind Dir Wind Speed Gust Speed Precip Events Conditions
12:02 AM 30.2 °F 17.4 °F 1.4 °F 29% 30.17 in 10.0 mi WNW 20.7 mph 26.5 mph N/A   Clear
12:22 AM 30.2 °F 21.3 °F -0.4 °F 27% 30.16 in 10.0 mi WNW 10.4 mph 20.7 mph N/A   Clear
12:44 AM 30.2 °F 21.3 °F 3.2 °F 32% 30.17 in 10.0 mi WNW 10.4 mph - N/A   Clear
1:03 AM 30.2 °F 23.4 °F 6.8 °F 37% 30.17 in 10.0 mi WNW 6.9 mph - N/A   Clear
1:23 AM 30.2 °F - 8.6 °F 40% 30.17 in 10.0 mi Calm Calm - N/A   Clear
1:42 AM 28.4 °F - 6.8 °F 40% 30.17 in 10.0 mi Calm Calm - N/A   Clear
2:04 AM 28.4 °F - 6.8 °F 40% 30.17 in 10.0 mi Calm Calm - N/A   Clear
2:22 AM 28.4 °F - 6.8 °F 40% 30.17 in 10.0 mi Calm Calm - N/A   Clear
2:42 AM 28.4 °F - 6.8 °F 40% 30.17 in 10.0 mi Calm Calm - N/A   Clear
3:02 AM 28.4 °F - 6.8 °F 40% 30.18 in 10.0 mi Calm Calm - N/A   Clear
3:22 AM 28.4 °F - 5.0 °F 37% 30.19 in 10.0 mi Calm Calm - N/A   Clear
3:42 AM 28.4 °F 20.4 °F 5.0 °F 37% 30.19 in 10.0 mi West 8.1 mph - N/A   Clear
4:02 AM 30.2 °F 24.3 °F 6.8 °F 37% 30.18 in 10.0 mi West 5.8 mph - N/A   Clear
4:22 AM 30.2 °F 25.4 °F 8.6 °F 40% 30.18 in 10.0 mi WNW 4.6 mph - N/A   Clear
4:42 AM 26.6 °F - 8.6 °F 47% 30.19 in 10.0 mi Calm Calm - N/A   Clear
5:02 AM 24.8 °F - 6.8 °F 46% 30.20 in 10.0 mi Calm Calm - N/A   Clear
5:22 AM 24.8 °F - 8.6 °F 50% 30.20 in 10.0 mi Calm Calm - N/A   Clear
5:42 AM 24.8 °F 20.5 °F 6.8 °F 46% 30.19 in 10.0 mi WNW 3.5 mph - N/A   Clear
6:02 AM 24.8 °F - 8.6 °F 50% 30.19 in 10.0 mi Calm Calm - N/A   Clear
6:22 AM 24.8 °F - 6.8 °F 46% 30.20 in 10.0 mi Calm Calm - N/A   Clear
6:42 AM 21.2 °F - 8.6 °F 58% 30.20 in 10.0 mi Calm Calm - N/A   Clear
7:02 AM 23.0 °F - 8.6 °F 54% 30.20 in 10.0 mi Calm Calm - N/A   Clear
7:22 AM 21.2 °F - 8.6 °F 58% 30.21 in 10.0 mi Calm Calm - N/A   Clear
7:42 AM 23.0 °F - 8.6 °F 54% 30.21 in 10.0 mi Calm Calm - N/A   Clear
8:02 AM 23.0 °F - 8.6 °F 54% 30.22 in 10.0 mi Calm Calm - N/A   Clear
8:22 AM 23.0 °F - 10.4 °F 59% 30.23 in 10.0 mi Calm Calm - N/A   Clear
8:42 AM 24.8 °F - 10.4 °F 54% 30.24 in 10.0 mi Calm Calm - N/A   Clear
9:02 AM 24.8 °F - 10.4 °F 54% 30.23 in 10.0 mi Calm Calm - N/A   Clear
9:22 AM 26.6 °F - 8.6 °F 47% 30.24 in 10.0 mi Calm Calm - N/A   Clear
9:43 AM 26.6 °F - 10.4 °F 51% 30.24 in 10.0 mi Calm Calm - N/A   Clear
10:02 AM 28.4 °F - 10.4 °F 47% 30.24 in 10.0 mi Calm Calm - N/A   Clear
10:22 AM 30.2 °F - 14.0 °F 51% 30.24 in 10.0 mi Calm Calm - N/A   Clear
10:42 AM 33.8 °F - 12.2 °F 41% 30.24 in 10.0 mi Calm Calm - N/A   Clear
11:04 AM 35.6 °F 32.8 °F 10.4 °F 35% 30.23 in 10.0 mi SE 3.5 mph - N/A   Clear
11:22 AM 35.6 °F 32.8 °F 8.6 °F 33% 30.23 in 10.0 mi South 3.5 mph - N/A   Clear
11:42 AM 37.4 °F 34.9 °F 10.4 °F 33% 30.22 in 10.0 mi SSE 3.5 mph - N/A   Clear
12:02 PM 37.4 °F 32.8 °F 10.4 °F 33% 30.22 in 10.0 mi SE 5.8 mph - N/A   Clear
12:22 PM 37.4 °F 32.8 °F 8.6 °F 30% 30.21 in 10.0 mi SSE 5.8 mph - N/A   Clear
12:42 PM 39.2 °F 35.9 °F 10.4 °F 31% 30.20 in 10.0 mi SSE 4.6 mph - N/A   Clear
1:03 PM 41.0 °F 38.0 °F 12.2 °F 31% 30.20 in 10.0 mi SSE 4.6 mph - N/A   Clear
1:22 PM 41.0 °F 37.1 °F 14.0 °F 33% 30.19 in 10.0 mi SSE 5.8 mph - N/A   Clear
1:42 PM 41.0 °F 37.1 °F 14.0 °F 33% 30.18 in 10.0 mi SSE 5.8 mph - N/A   Clear
2:04 PM 41.0 °F 36.4 °F 15.8 °F 36% 30.18 in 10.0 mi South 6.9 mph - N/A   Clear
2:22 PM 41.0 °F 36.4 °F 14.0 °F 33% 30.17 in 10.0 mi South 6.9 mph - N/A   Clear
2:42 PM 41.0 °F 39.0 °F 15.8 °F 36% 30.16 in 10.0 mi SSE 3.5 mph - N/A   Clear
3:03 PM 42.8 °F 39.3 °F 12.2 °F 29% 30.16 in 10.0 mi SSE 5.8 mph - N/A   Clear
3:22 PM 42.8 °F 41.1 °F 12.2 °F 29% 30.15 in 10.0 mi SE 3.5 mph - N/A   Clear
3:42 PM 41.0 °F 37.1 °F 12.2 °F 31% 30.15 in 10.0 mi SE 5.8 mph - N/A   Clear
4:02 PM 41.0 °F 37.1 °F 14.0 °F 33% 30.15 in 10.0 mi SE 5.8 mph - N/A   Clear
4:22 PM 39.2 °F 35.0 °F 14.0 °F 36% 30.14 in 10.0 mi SSE 5.8 mph - N/A   Clear
4:42 PM 39.2 °F 35.0 °F 14.0 °F 36% 30.14 in 10.0 mi SSE 5.8 mph - N/A   Clear
5:02 PM 37.4 °F 32.8 °F 14.0 °F 38% 30.15 in 10.0 mi South 5.8 mph - N/A   Clear
5:22 PM 37.4 °F 33.8 °F 17.6 °F 45% 30.16 in 10.0 mi SSE 4.6 mph - N/A   Clear
5:43 PM 35.6 °F 32.8 °F 19.4 °F 52% 30.16 in 10.0 mi SSE 3.5 mph - N/A   Clear
6:02 PM 35.6 °F 32.8 °F 17.6 °F 48% 30.16 in 10.0 mi South 3.5 mph - N/A   Clear
6:22 PM 33.8 °F 29.6 °F 19.4 °F 56% 30.18 in 10.0 mi South 4.6 mph - N/A   Clear
6:42 PM 33.8 °F - 17.6 °F 52% 30.17 in 10.0 mi Calm Calm - N/A   Clear
7:02 PM 33.8 °F - 15.8 °F 48% 30.17 in 10.0 mi Calm Calm - N/A   Clear
7:22 PM 33.8 °F 30.8 °F 17.6 °F 52% 30.18 in 10.0 mi SE 3.5 mph - N/A   Clear
7:42 PM 33.8 °F - 17.6 °F 52% 30.18 in 10.0 mi Calm Calm - N/A   Clear
8:02 PM 32.0 °F - 17.6 °F 55% 30.17 in 10.0 mi Calm Calm - N/A   Clear
8:23 PM 32.0 °F 28.7 °F 19.4 °F 60% 30.17 in 10.0 mi SSE 3.5 mph - N/A   Clear
8:42 PM 32.0 °F 28.7 °F 19.4 °F 60% 30.16 in 10.0 mi South 3.5 mph - N/A   Clear
9:03 PM 32.0 °F - 21.2 °F 64% 30.16 in 10.0 mi Calm Calm - N/A   Clear
9:22 PM 30.2 °F - 21.2 °F 69% 30.16 in 10.0 mi Calm Calm - N/A   Clear
9:42 PM 32.0 °F - 21.2 °F 64% 30.15 in 10.0 mi Calm Calm - N/A   Clear
10:03 PM 32.0 °F - 21.2 °F 64% 30.14 in 10.0 mi Calm Calm - N/A   Clear
10:23 PM 32.0 °F - 21.2 °F 64% 30.13 in 10.0 mi Calm Calm - N/A   Clear
10:42 PM 32.0 °F - 21.2 °F 64% 30.13 in 10.0 mi Calm Calm - N/A   Clear
11:03 PM 32.0 °F - 21.2 °F 64% 30.11 in 10.0 mi Calm Calm - N/A   Clear
11:22 PM 32.0 °F - 21.2 °F 64% 30.11 in 10.0 mi Calm Calm - N/A   Clear
11:42 PM 32.0 °F 27.5 °F 21.2 °F 64% 30.11 in 10.0 mi South 4.6 mph - N/A   Clear